Flag for U.S.A. Weather past 2 weeks in Pasco, Washington, U.S.A.

Now
99 °F

Sunny.


Feels Like: 94 °F
Forecast: 59 / 102 °F
Wind: 3 mph from North

Location: Tri-Cities Airport

Current Time: Aug 2, 2015 at 3:33:27 PM

Latest Report: Aug 2, 2015 at 1:53 PM


Visibility: 10 mi

Pressure: 29.78 "Hg

Humidity: 11%

Dew point: 36 °F

Location of PascoLocation

Historic Weather in Pasco — Graph

°F

Pasco temperature yesterday

Maximum temperature yesterday: 103 °F (at 2:53 PM)
Minimum temperature yesterday: 56 °F (at 5:53 AM)
Average temperature yesterday: 83 °F

Past Weeks' High & Low Weather Summary

 TemperatureHumidityPressure
High108 °F (Jul 31, 4:53 PM)86% (Jul 29, 3:53 AM)30.22 "Hg (Jul 29, 3:53 AM)
Low50 °F (Jul 28, 4:53 AM)9% (Jul 30, 5:53 PM)29.65 "Hg (Jul 21, 6:53 PM)
Average77 °F39%29.92 "Hg
* Reported Jul 18 1:53 PM — Aug 2 1:53 PM, Pasco, Weather by CustomWeather, © 2015

Note: Actual official high and low records may vary slightly from our data, if they occured in-between our weather recording intervals... More about our weather records

Advertising

Pasco weather history for previous 24 hours

 ConditionsComfort  
Time TempWeatherWind HumidityBarometerVisibility
1:53 PM
Sun, Aug 2
99 °FSunny.3 mph11%29.78 "Hg10 mi
12:53 PM96 °FSunny.3 mph13%29.80 "Hg10 mi
11:53 AM92 °FSunny.3 mph17%29.82 "Hg10 mi
10:53 AM85 °FSunny.No wind25%29.83 "Hg10 mi
9:53 AM81 °FSunny.6 mph32%29.85 "Hg10 mi
8:53 AM76 °FSunny.3 mph33%29.85 "Hg10 mi
7:53 AM68 °FSunny.No wind55%29.84 "Hg10 mi
6:53 AM58 °FSunny.5 mph75%29.83 "Hg10 mi
5:53 AM57 °FClear.3 mph72%29.82 "Hg10 mi
4:53 AM58 °FClear.No wind75%29.81 "Hg10 mi
3:53 AM60 °FClear.No wind72%29.80 "Hg10 mi
2:53 AM62 °FClear.5 mph67%29.80 "Hg10 mi
1:53 AM67 °FClear.No wind61%29.78 "Hg10 mi
12:53 AM70 °FClear.No wind59%29.77 "Hg8 mi
11:53 PM
Sat, Aug 1
77 °FClear.3 mph47%29.76 "Hg10 mi
10:53 PM72 °FClear.No wind57%29.76 "Hg10 mi
9:53 PM77 °FClear.No wind47%29.74 "Hg10 mi
8:53 PM90 °FSunny.No wind22%29.73 "Hg10 mi
7:53 PM98 °FSunny.7 mph14%29.73 "Hg10 mi
6:53 PM102 °FSunny.7 mph10%29.73 "Hg10 mi
5:53 PM103 °FSunny.8 mph11%29.75 "Hg10 mi
4:53 PM103 °FSunny.10 mph12%29.76 "Hg10 mi
3:53 PM103 °FSunny.6 mph12%29.78 "Hg10 mi
Weather by CustomWeather, © 2015

See weather overviewHow to use our weather pages